Location: Buckland
(65.9785°N, 161.1281°W)
Time: 15:33:28
(UTC+00:00)

Envisat - Visible Passes

Search period start: 27 October 2020 00:00
Search period end: 06 November 2020 00:00
Orbit: 764 x 766 km, 98.1° (Epoch: 27 October)

Date Brightness Start Highest point End Pass type
(mag) Time Alt. Az. Time Alt. Az. Time Alt. Az.
27 Oct 5.6 05:02:37 10° SW 05:06:42 24° W 05:10:48 10° NNW visible
27 Oct 6.0 15:17:57 10° NE 15:21:26 18° E 15:24:56 10° ESE visible
27 Oct 3.8 16:56:31 10° NNE 17:01:34 58° ESE 17:06:35 10° S visible
28 Oct 4.8 04:24:46 10° SSW 04:29:28 36° W 04:34:11 10° NNW visible
28 Oct 6.5 06:08:34 10° W 06:10:04 11° WNW 06:11:33 10° NW visible
28 Oct 6.5 14:42:13 10° NE 14:43:56 12° ENE 14:45:39 10° E visible
28 Oct 4.7 16:19:45 10° NNE 16:24:30 37° E 16:29:13 10° SSE visible
29 Oct 3.9 03:47:22 10° S 03:52:22 56° WSW 03:57:24 10° NNW visible
29 Oct 6.0 05:29:09 10° WSW 05:32:32 18° W 05:35:56 10° NW visible
29 Oct 5.5 15:43:06 10° NNE 15:47:16 24° E 15:51:24 10° SE visible
29 Oct 3.2 17:21:58 10° NNE 17:27:06 79° ESE 17:32:12 10° SSW visible
30 Oct 5.3 04:50:53 10° SW 04:55:10 27° W 04:59:30 10° NNW visible
30 Oct 6.1 15:06:46 10° NE 15:09:53 16° ENE 15:12:58 10° ESE visible
30 Oct 4.0 16:45:08 10° NNE 16:50:08 51° E 16:55:06 10° S visible
31 Oct 4.5 04:13:10 10° SSW 04:17:59 41° W 04:22:49 10° NNW visible
31 Oct 6.3 05:56:10 10° W 05:58:27 13° WNW 06:00:44 10° NW visible
31 Oct 4.9 16:08:24 10° NNE 16:13:01 33° E 16:17:36 10° SSE visible
01 Nov 3.6 03:35:53 10° S 03:40:57 64° WSW 03:46:03 10° NNW visible
01 Nov 5.8 05:17:16 10° SW 05:20:58 20° W 05:24:42 10° NW visible
01 Nov 5.7 15:31:50 10° NNE 15:35:44 22° E 15:39:37 10° SE visible
01 Nov 3.4 17:10:34 10° NNE 17:15:41 69° ESE 17:20:47 10° S visible
02 Nov 5.1 04:39:11 10° SSW 04:43:40 30° W 04:48:10 10° NNW visible
02 Nov 6.2 14:55:39 10° NE 14:58:18 14° ENE 15:00:55 10° ESE visible
02 Nov 4.3 16:33:46 10° NNE 16:38:41 45° E 16:43:33 10° S visible
03 Nov 4.2 04:01:37 10° S 04:06:31 47° W 04:11:28 10° NNW visible
03 Nov 6.2 05:44:02 10° WSW 05:46:51 15° WNW 05:49:41 10° NW visible
03 Nov 5.1 15:57:04 10° NNE 16:01:31 29° E 16:05:56 10° SSE visible
03 Nov 3.1 17:36:02 10° NNE 17:41:11 88° WNW 17:46:17 10° SSW visible
04 Nov 3.3 03:24:26 10° SSE 03:29:31 73° WSW 03:34:39 10° NNW visible
04 Nov 5.6 05:05:26 10° SW 05:09:26 23° W 05:13:26 10° NNW visible
04 Nov 5.8 15:20:35 10° NE 15:24:12 19° E 15:27:47 10° SE visible
04 Nov 3.7 16:59:12 10° NNE 17:04:16 61° ESE 17:09:19 10° S visible
05 Nov 4.8 04:27:32 10° SSW 04:32:10 35° W 04:36:50 10° NNW visible
05 Nov 6.5 06:11:46 10° W 06:12:49 11° WNW 06:13:52 10° WNW visible
05 Nov 6.3 14:44:40 10° NE 14:46:42 12° ENE 14:48:42 10° E visible
05 Nov 4.5 16:22:25 10° NNE 16:27:13 39° E 16:31:59 10° SSE visible
